(342492) = 2008 UM163

Discovered at Kitt Peak on 2008-10-24 by Spacewatch.

Orbit

Orbit type: Main Belt

Note: WebGL enabled browser required.

epoch2023-09-13.0
epoch JD2460200.5
perihelion date2021-02-26.53168
perihelion JD2459272.03168
argument of perihelion (°)95.55208
ascending node (°)245.78076
inclination (°)4.31033
eccentricity0.1340631
perihelion distance (AU)2.2847742
Tisserand w.r.t. Jupiter3.4
ΔV w.r.t. Earth (km/sec)9.6
semimajor axis (AU)2.6384996
mean anomaly (°)213.51844
mean daily motion (°/day)0.22996850
aphelion distance (AU)2.992
period (years)4.29
P-vector [x]0.94482656
P-vector [y]-0.32235498
P-vector [z]-0.05822407
Q-vector [x]0.32031953
Q-vector [y]0.87200641
Q-vector [z]0.37013542
absolute magnitude16.77
phase slope0.15
uncertainty0
referenceMPEC 2024-B173
observations used241
oppositions11
arc length (days)9099
first opposition used1998
last opposition used2023
residual rms (arc-secs)0.70
perturbers coarse indicatorM-v
perturbers precise indicator003Ek
first observation date used1998-04-19.0
last observation date used2023-03-18.0
computer nameMPCLINUX
JD of orbit computation2456700.205735
perihelion JD uncertainty (days)1.4147E-04
argument of perihelion uncertainty (°)1.1751E-04
ascending node uncertainty (°)1.1200E-04
inclination uncertainty (°)9.0683E-06
eccentricity uncertainty 1.2169E-07
perihelion distance uncertainty (AU)3.1443E-07
Minimum Orbit Intersection Distances (in AU)
for orbit epoch: 2460200.5, reference: E2024-BH3
Mercury1.89618
Venus1.56671
Earth1.28083
Mars0.92036
Jupiter2.38869
Saturn6.23893
Uranus15.4685
Neptune27.3301

Observations

242 total observations over interval: 1998 04 19.32395 – 2023 03 18.391369
These data are available for download (format description).

Date (UT) J2000 RA J2000 Dec Magn Location Ref
1998 04 19.32395 13 42 33.12 -14 55 12.5 21.0 V 691 – Steward Observatory, Kitt Peak-Spacewatch MPS 310301
1998 04 19.34523 13 42 32.02 -14 55 04.6 20.7 V 691 – Steward Observatory, Kitt Peak-Spacewatch MPS 310301
1998 04 19.36650 13 42 30.89 -14 54 57.5 20.8 V 691 – Steward Observatory, Kitt Peak-Spacewatch MPS 310301
2008 10 24.15409 02 25 02.92 +18 13 42.2 19.8 V 691 – Steward Observatory, Kitt Peak-Spacewatch MPS 263527
2008 10 24.17175 02 25 01.98 +18 13 36.1 19.8 V 691 – Steward Observatory, Kitt Peak-Spacewatch MPS 263527
2008 10 24.18939 02 25 01.00 +18 13 29.8 19.8 V 691 – Steward Observatory, Kitt Peak-Spacewatch MPS 263527
2008 10 24.32749 02 24 53.38 +18 12 40.5 19.1 V G96 – Mt. Lemmon Survey MPS 267685
2008 10 24.33557 02 24 52.92 +18 12 37.7 19.4 V G96 – Mt. Lemmon Survey MPS 267685
2008 10 24.34363 02 24 52.48 +18 12 34.7 19.1 V G96 – Mt. Lemmon Survey MPS 267685
2008 10 24.35176 02 24 52.02 +18 12 31.8 19.2 V G96 – Mt. Lemmon Survey MPS 267685
2008 10 26.14582 02 23 16.21 +18 01 32.0 19.7 V 691 – Steward Observatory, Kitt Peak-Spacewatch MPS 263527
2008 10 26.15592 02 23 15.66 +18 01 28.2 20.4 V 691 – Steward Observatory, Kitt Peak-Spacewatch MPS 263527
2008 10 26.16347 02 23 15.24 +18 01 26.2 19.7 V 691 – Steward Observatory, Kitt Peak-Spacewatch MPS 263527
2008 10 26.17358 02 23 14.71 +18 01 23.1 19.6 V 691 – Steward Observatory, Kitt Peak-Spacewatch MPS 263527
2008 10 26.18113 02 23 14.25 +18 01 19.9 19.6 V 691 – Steward Observatory, Kitt Peak-Spacewatch MPS 263527
2008 10 26.19124 02 23 13.75 +18 01 16.4 19.6 V 691 – Steward Observatory, Kitt Peak-Spacewatch MPS 263527
2008 11 01.25010 02 17 47.00 +17 22 33.5 19.7   704 – Lincoln Laboratory ETS, New Mexico MPS 263527
2008 11 01.25360 02 17 46.76 +17 22 32.7 19.5   704 – Lincoln Laboratory ETS, New Mexico MPS 263527
2008 11 01.26177 02 17 46.42 +17 22 28.9 20.0   704 – Lincoln Laboratory ETS, New Mexico MPS 263527
2008 11 01.26531 02 17 46.08 +17 22 28.0 20.2   704 – Lincoln Laboratory ETS, New Mexico MPS 263527
2008 11 01.27702 02 17 45.48 +17 22 23.6 19.9   704 – Lincoln Laboratory ETS, New Mexico MPS 263527
2008 11 01.28522 02 17 45.06 +17 22 20.2 20.1   704 – Lincoln Laboratory ETS, New Mexico MPS 263527
2008 11 01.29709 02 17 44.36 +17 22 14.8 20.0   704 – Lincoln Laboratory ETS, New Mexico MPS 263527
2008 11 01.30064 02 17 44.16 +17 22 13.8 19.6   704 – Lincoln Laboratory ETS, New Mexico MPS 263527
2008 11 06.27530 02 13 23.62 +16 49 28.8 19.6 V G96 – Mt. Lemmon Survey MPS 264711
2008 11 06.28077 02 13 23.34 +16 49 26.7 19.8 V G96 – Mt. Lemmon Survey MPS 264711
2008 11 06.28642 02 13 23.05 +16 49 24.4 19.6 V G96 – Mt. Lemmon Survey MPS 264711
2008 11 06.29191 02 13 22.76 +16 49 22.2 19.6 V G96 – Mt. Lemmon Survey MPS 264711
2008 11 17.07711 02 05 05.76 +15 40 24.6 19.8 V 691 – Steward Observatory, Kitt Peak-Spacewatch MPS 265363
2008 11 17.10098 02 05 04.78 +15 40 16.1 19.9 V 691 – Steward Observatory, Kitt Peak-Spacewatch MPS 265363
2008 11 17.12486 02 05 03.78 +15 40 07.4 20.0 V 691 – Steward Observatory, Kitt Peak-Spacewatch MPS 265363
2008 11 20.08488 02 03 10.86 +15 22 38.0 20.3 V 691 – Steward Observatory, Kitt Peak-Spacewatch MPS 265363
2008 11 20.10073 02 03 10.24 +15 22 32.6 20.2 V 691 – Steward Observatory, Kitt Peak-Spacewatch MPS 265363
2008 11 20.11658 02 03 09.65 +15 22 27.2 20.1 V 691 – Steward Observatory, Kitt Peak-Spacewatch MPS 265363
2008 12 31.18010 02 01 10.27 +13 33 22.4 20.0 V G96 – Mt. Lemmon Survey MPS 270413
2008 12 31.19008 02 01 10.48 +13 33 22.5 20.6 V G96 – Mt. Lemmon Survey MPS 270413
2008 12 31.20002 02 01 10.81 +13 33 23.1 21.5 V G96 – Mt. Lemmon Survey MPS 270413
2008 12 31.20999 02 01 11.06 +13 33 23.5 21.1 V G96 – Mt. Lemmon Survey MPS 270413
2010 01 08.40540 09 42 41.82 +07 49 06.7 21.4 V 691 – Steward Observatory, Kitt Peak-Spacewatch MPS 310301
2010 01 08.42305 09 42 41.24 +07 49 07.9 21.1 V 691 – Steward Observatory, Kitt Peak-Spacewatch MPS 310301
2010 01 08.44069 09 42 40.58 +07 49 08.5 21.7 V 691 – Steward Observatory, Kitt Peak-Spacewatch MPS 310301
2010 01 12.34167 09 40 24.94 +07 53 35.4   691 – Steward Observatory, Kitt Peak-Spacewatch MPS 310301
2010 01 12.35932 09 40 24.30 +07 53 37.1   691 – Steward Observatory, Kitt Peak-Spacewatch MPS 310301
2010 01 12.37697 09 40 23.59 +07 53 38.8   691 – Steward Observatory, Kitt Peak-Spacewatch MPS 310301
2010 02 15.30675 09 12 07.70 +09 39 48.9 21.0 V G96 – Mt. Lemmon Survey MPS 313507
2010 02 15.31299 09 12 07.34 +09 39 50.5 20.8 V G96 – Mt. Lemmon Survey MPS 313507
2010 02 15.31921 09 12 07.05 +09 39 51.5 20.6 V G96 – Mt. Lemmon Survey MPS 313507
2010 02 15.32550 09 12 06.69 +09 39 53.4 20.8 V G96 – Mt. Lemmon Survey MPS 313507
2012 08 25.33940 23 48 39.24 +06 35 06.7 20.2 V 691 – Steward Observatory, Kitt Peak-Spacewatch MPS 430119
2012 08 25.35718 23 48 38.60 +06 35 04.1 20.2 V 691 – Steward Observatory, Kitt Peak-Spacewatch MPS 430119
2012 08 25.37498 23 48 37.96 +06 35 01.5 20.2 V 691 – Steward Observatory, Kitt Peak-Spacewatch MPS 430119
2012 09 14.27593 23 34 24.27 +05 09 46.3 19.5 V 703 – Catalina Sky Survey MPS 431340
2012 09 14.28474 23 34 23.77 +05 09 43.4 19.0 V 703 – Catalina Sky Survey MPS 431340
2012 09 14.29363 23 34 23.41 +05 09 40.8 18.9 V 703 – Catalina Sky Survey MPS 431340
2012 09 14.30252 23 34 22.98 +05 09 38.2 19.6 V 703 – Catalina Sky Survey MPS 431340
2012 09 19.22714 23 30 25.99 +04 39 36.6 19.4 V G96 – Mt. Lemmon Survey MPS 431953
2012 09 19.23574 23 30 25.56 +04 39 33.3 19.3 V G96 – Mt. Lemmon Survey MPS 431953
2012 09 19.24455 23 30 25.12 +04 39 30.3 19.4 V G96 – Mt. Lemmon Survey MPS 431953
2012 09 19.25331 23 30 24.69 +04 39 27.1 19.2 V G96 – Mt. Lemmon Survey MPS 431953
2012 09 22.19898 23 28 05.81 +04 20 38.9 19.7   704 – Lincoln Laboratory ETS, New Mexico MPS 433377
2012 09 22.21363 23 28 05.18 +04 20 34.2 19.4   704 – Lincoln Laboratory ETS, New Mexico MPS 433377
2012 09 22.22833 23 28 04.42 +04 20 27.0 19.9   704 – Lincoln Laboratory ETS, New Mexico MPS 433377
2012 09 22.24304 23 28 03.72 +04 20 21.8 19.8   704 – Lincoln Laboratory ETS, New Mexico MPS 433377
2013 12 25.37229 08 04 11.50 +15 46 01.4 21.2 V G96 – Mt. Lemmon Survey MPS 493344
2013 12 25.38238 08 04 10.98 +15 46 01.6 21.0 V G96 – Mt. Lemmon Survey MPS 493344
2013 12 25.40251 08 04 10.03 +15 46 02.9 20.8 V G96 – Mt. Lemmon Survey MPS 493344
2014 01 09.38244 07 50 45.52 +16 02 04.9 20.2 V G96 – Mt. Lemmon Survey MPS 496514
2014 01 09.38714 07 50 45.25 +16 02 05.3 20.8 V G96 – Mt. Lemmon Survey MPS 496514
2014 01 09.39187 07 50 44.99 +16 02 05.3 20.4 V G96 – Mt. Lemmon Survey MPS 496514
2014 01 09.39659 07 50 44.72 +16 02 06.5 20.5 V G96 – Mt. Lemmon Survey MPS 496514
2014 01 21.28295 07 39 05.54 +16 22 03.5 20.5 V G96 – Mt. Lemmon Survey MPS 498379
2014 01 21.28905 07 39 05.15 +16 22 03.9 20.5 V G96 – Mt. Lemmon Survey MPS 498379
2014 01 21.29513 07 39 04.81 +16 22 04.7 20.7 V G96 – Mt. Lemmon Survey MPS 498379
2014 01 21.30121 07 39 04.45 +16 22 05.2 20.7 V G96 – Mt. Lemmon Survey MPS 498379
2015 03 21.43696 13 06 10.375 -12 32 14.54 20.9 w F51 – Pan-STARRS 1, Haleakala MPS 595051
2015 03 21.44751 13 06 09.886 -12 32 11.77 20.9 w F51 – Pan-STARRS 1, Haleakala MPS 595051
2015 03 21.45804 13 06 09.402 -12 32 09.03 20.9 w F51 – Pan-STARRS 1, Haleakala MPS 595051
2015 03 21.46857 13 06 08.910 -12 32 06.26 20.8 w F51 – Pan-STARRS 1, Haleakala MPS 595051
2015 04 10.29065 12 49 58.36 -10 43 23.8 20.8 V G96 – Mt. Lemmon Survey MPS 598409
2015 04 10.29576 12 49 58.11 -10 43 22.2 20.3 V G96 – Mt. Lemmon Survey MPS 598409
2015 04 10.30088 12 49 57.82 -10 43 19.9 20.6 V G96 – Mt. Lemmon Survey MPS 598409
2015 04 10.30600 12 49 57.56 -10 43 18.2 20.4 V G96 – Mt. Lemmon Survey MPS 598409
2015 04 18.07849 12 43 38.61 -09 54 21.2 21.0 V W84 – Cerro Tololo-DECam MPS 789843
2015 04 18.08168 12 43 38.46 -09 54 19.9   W84 – Cerro Tololo-DECam MPS 789843
2015 04 18.08482 12 43 38.30 -09 54 18.8   W84 – Cerro Tololo-DECam MPS 789843
2015 04 18.08798 12 43 38.15 -09 54 17.6   W84 – Cerro Tololo-DECam MPS 789843
2015 04 18.09115 12 43 38.00 -09 54 16.4   W84 – Cerro Tololo-DECam MPS 789843
2015 04 18.25781 12 43 30.06 -09 53 18.3 20.7 V G96 – Mt. Lemmon Survey MPS 603010
